Location: Boissi�res
(45.2500°N, 2.3667°E)
Time: 15:24:05
(UTC+00:00)

YAOGAN 1 - Pass Details

Date: 03 March 2021
Orbit: 618 x 620 km, 97.9° (Epoch: 10 April)

Event Time Altitude Azimuth Distance (km) Brightness Sun altitude
Rises 19:13:32 0° 190° (S) 2,883 6.0 -17.1°
Reaches altitude 10° 19:15:55 10° 201° (SSW) 1,983 5.3 -17.5°
Maximum altitude 19:19:45 31° 264° (W) 1,088 4.5 -18.2°
Drops below altitude 10° 19:23:39 10° 327° (NNW) 1,997 5.7 -18.9°
Sets 19:26:03 0° 338° (NNW) 2,909 6.5 -19.3°
